Bigfork, MN

12:59 PM CDT on September 28, 2016 (GMT -0500)
Bigfork Municipal

Weather History for KFOZ - October, 2012

Change the Weather History Date:

Wednesday, October 24, 2012

  Actual Average (KGPZ) Record (KGPZ)
Temperature  
Mean Temperature 44 °F -  
Max Temperature 51 °F 52 °F 75 °F (1989)
Min Temperature 37 °F 31 °F 10 °F (1917)
Degree Days  
Heating Degree Days 21    
Moisture  
Dew Point 44 °F    
Average Humidity 90    
Maximum Humidity 94    
Minimum Humidity 82    
Precipitation  
Precipitation 0.01 in - - ()
Sea Level Pressure  
Sea Level Pressure 29.86 in    
Wind  
Wind Speed 5 mph (WNW)    
Max Wind Speed 7 mph    
Max Gust Speed -    
Visibility 8 miles    
Events Rain    
Averages and records for this station are not official NWS values.
T = Trace of Precipitation, MM = Missing Value Source: NWS Daily Summary

Daily Weather History Graph

Daily Weather History Graph

Search for Another Location

Airport or City:

Trip Planner

Search our weather history database for the weather conditions in past years. The results will help you decide how hot, cold, wet, or windy it might be!

Date:

Astronomy

Oct. 24, 2012 Rise Set
Actual Time 7:47 AM CDT 6:08 PM CDT
Civil Twilight 7:15 AM CDT 6:40 PM CDT
Nautical Twilight 6:39 AM CDT 7:16 PM CDT
Astronomical Twilight 6:04 AM CDT 7:52 PM CDT
Moon 3:43 PM CDT (10/24) 2:23 AM CDT (10/24)
Length of Visible Light 11h 24m
Length of Day
10h 21m
Waxing Gibbous, 76% of the Moon is Illuminated
Oct 24
Waxing Gibbous
Oct 29
Full
Nov 6
Last Quarter
Nov 13
New
Nov 20
First Quarter

Hourly Weather History & Observations

Time (CDT) Temp. Windchill Dew Point Humidity Pressure Visibility Wind Dir Wind Speed Gust Speed Precip Events Conditions
12:13 AM 51.8 °F - 48.2 °F 88% 29.74 in 3.0 mi South 6.9 mph - N/A   Drizzle
12:33 AM 51.8 °F - 48.2 °F 88% 29.74 in 3.0 mi South 6.9 mph - N/A   Light Drizzle
12:53 AM 51.8 °F - 48.2 °F 88% 29.74 in 3.0 mi South 5.8 mph - N/A Rain Light Rain
1:13 AM 51.8 °F - 48.2 °F 88% 29.75 in 3.0 mi SSW 5.8 mph - N/A   Overcast
1:33 AM 51.8 °F - 48.2 °F 88% 29.76 in 2.5 mi SSW 5.8 mph - N/A   Overcast
1:53 AM 51.8 °F - 50.0 °F 94% 29.77 in 4.0 mi SW 6.9 mph - N/A   Overcast
2:13 AM 51.8 °F - 50.0 °F 94% 29.77 in 3.0 mi SW 4.6 mph - N/A   Overcast
2:33 AM 51.8 °F - 50.0 °F 94% 29.78 in 4.0 mi SW 4.6 mph - N/A   Overcast
2:53 AM 51.8 °F - 50.0 °F 94% 29.79 in 4.0 mi SW 4.6 mph - N/A   Overcast
3:13 AM 51.8 °F - 50.0 °F 94% 29.79 in 3.0 mi WSW 6.9 mph - N/A   Overcast
3:33 AM 51.8 °F - 50.0 °F 94% 29.79 in 5.0 mi WSW 4.6 mph - N/A   Overcast
3:53 AM 51.8 °F - 50.0 °F 94% 29.79 in 4.0 mi WSW 4.6 mph - N/A   Overcast
4:13 AM 51.8 °F - 50.0 °F 94% 29.81 in 5.0 mi West 4.6 mph - N/A   Overcast
4:33 AM 51.8 °F - 48.2 °F 88% 29.81 in 5.0 mi West 4.6 mph - N/A   Overcast
4:53 AM 50.0 °F - 48.2 °F 94% 29.80 in 5.0 mi WNW 4.6 mph - N/A   Overcast
5:13 AM 48.2 °F - 46.4 °F 93% 29.81 in 10.0 mi West 4.6 mph - N/A   Overcast
5:33 AM 48.2 °F - 46.4 °F 93% 29.82 in 10.0 mi West 4.6 mph - N/A   Overcast
5:53 AM 48.2 °F - 46.4 °F 93% 29.81 in 10.0 mi Calm Calm - N/A   Overcast
6:13 AM 48.2 °F - 46.4 °F 93% 29.83 in 10.0 mi Calm Calm - N/A   Overcast
6:33 AM 48.2 °F - 46.4 °F 93% 29.86 in 10.0 mi West 4.6 mph - N/A   Overcast
6:53 AM 48.2 °F - 46.4 °F 93% 29.85 in 10.0 mi Calm Calm - N/A   Overcast
7:13 AM 48.2 °F - 46.4 °F 93% 29.88 in 10.0 mi WSW 4.6 mph - N/A   Overcast
7:21 AM 48.2 °F - 46.4 °F 93% 29.87 in 10.0 mi WSW 3.5 mph - N/A   Overcast
8:51 AM - - - N/A% - - North - - N/A   Unknown
8:53 AM - - - N/A% 29.89 in - Calm Calm - N/A   Unknown
9:13 AM 48.2 °F - 44.6 °F 87% 29.90 in 10.0 mi WSW 5.8 mph - N/A   Overcast
9:33 AM 48.2 °F - 44.6 °F 87% 29.91 in 10.0 mi WSW 4.6 mph - N/A   Overcast
9:53 AM 46.4 °F 42.9 °F 44.6 °F 93% 29.91 in 10.0 mi WSW 6.9 mph - N/A Rain Light Rain
10:13 AM 48.2 °F - 44.6 °F 87% 29.91 in 10.0 mi West 3.5 mph - N/A   Overcast
10:33 AM 48.2 °F - 44.6 °F 87% 29.90 in 10.0 mi West 5.8 mph - N/A   Mostly Cloudy
10:53 AM 48.2 °F - 44.6 °F 87% 29.90 in 10.0 mi WNW 4.6 mph - N/A   Overcast
11:13 AM 46.4 °F - 44.6 °F 93% 29.89 in 10.0 mi Calm Calm - N/A   Overcast
11:33 AM 46.4 °F 44.3 °F 44.6 °F 93% 29.89 in 10.0 mi NW 4.6 mph - N/A   Overcast
11:53 AM 46.4 °F - 44.6 °F 93% 29.88 in 10.0 mi Calm Calm - N/A   Overcast
12:14 PM 48.2 °F - 44.6 °F 87% 29.88 in 10.0 mi West 3.5 mph - N/A   Overcast
12:33 PM 48.2 °F - 42.8 °F 82% 29.89 in 10.0 mi WSW 4.6 mph - N/A   Overcast
12:53 PM 48.2 °F - 44.6 °F 87% 29.89 in 10.0 mi West 4.6 mph - N/A   Overcast
1:33 PM 48.2 °F - 44.6 °F 87% 29.88 in 10.0 mi NW 4.6 mph - N/A   Overcast
1:53 PM 46.4 °F 43.5 °F 44.6 °F 93% 29.88 in 10.0 mi NW 5.8 mph - N/A   Overcast
2:13 PM 46.4 °F 44.3 °F 44.6 °F 93% 29.89 in 10.0 mi NW 4.6 mph - N/A   Overcast
2:33 PM 46.4 °F - 42.8 °F 87% 29.89 in 10.0 mi Calm Calm - N/A   Overcast
2:53 PM 46.4 °F 45.2 °F 42.8 °F 87% 29.89 in 10.0 mi NNW 3.5 mph - N/A   Overcast
3:13 PM 46.4 °F 45.2 °F 42.8 °F 87% 29.90 in 10.0 mi WNW 3.5 mph - N/A   Overcast
3:33 PM 44.6 °F 42.2 °F 42.8 °F 93% 29.90 in 5.0 mi NNW 4.6 mph - N/A   Overcast
3:53 PM 44.6 °F 42.2 °F 42.8 °F 93% 29.90 in 4.0 mi NNW 4.6 mph - N/A   Overcast
4:13 PM 44.6 °F 42.2 °F 42.8 °F 93% 29.90 in 7.0 mi NNW 4.6 mph - N/A   Overcast
4:33 PM 44.6 °F 41.4 °F 42.8 °F 93% 29.90 in 5.0 mi NW 5.8 mph - N/A   Overcast
4:53 PM 44.6 °F 43.1 °F 41.0 °F 87% 29.89 in 4.0 mi NW 3.5 mph - N/A   Drizzle
5:33 PM 42.8 °F 41.1 °F 39.2 °F 87% 29.90 in 7.0 mi NNW 3.5 mph - N/A   Overcast
5:53 PM 42.8 °F 38.6 °F 39.2 °F 87% 29.90 in 10.0 mi NW 6.9 mph - N/A   Overcast
6:13 PM 42.8 °F 40.1 °F 39.2 °F 87% 29.90 in 10.0 mi NW 4.6 mph - N/A   Overcast
6:33 PM 42.8 °F 39.3 °F 39.2 °F 87% 29.90 in 10.0 mi NNW 5.8 mph - N/A   Overcast
6:53 PM 41.0 °F 38.0 °F 39.2 °F 93% 29.90 in 7.0 mi NW 4.6 mph - N/A   Overcast
7:13 PM 41.0 °F 38.0 °F 39.2 °F 93% 29.89 in 7.0 mi NNW 4.6 mph - N/A   Overcast
7:33 PM 41.0 °F 39.0 °F 39.2 °F 93% 29.90 in 10.0 mi NNW 3.5 mph - N/A   Overcast
8:13 PM 41.0 °F 38.0 °F 37.4 °F 87% 29.89 in 10.0 mi NNW 4.6 mph - N/A   Overcast
8:33 PM 41.0 °F 39.0 °F 37.4 °F 87% 29.88 in 10.0 mi NNW 3.5 mph - N/A   Overcast
8:53 PM 39.2 °F 35.0 °F 37.4 °F 93% 29.89 in 10.0 mi NNW 5.8 mph - N/A   Overcast
9:13 PM 39.2 °F 34.2 °F 35.6 °F 87% 29.89 in 10.0 mi NNW 6.9 mph - N/A   Overcast
9:53 PM 39.2 °F 35.0 °F 35.6 °F 87% 29.92 in 10.0 mi NW 5.8 mph - N/A   Overcast
10:13 PM 39.2 °F 35.0 °F 35.6 °F 87% 29.93 in 10.0 mi NW 5.8 mph - N/A   Overcast
10:33 PM 39.2 °F 34.2 °F 35.6 °F 87% 29.94 in 10.0 mi NW 6.9 mph - N/A   Mostly Cloudy
10:53 PM 39.2 °F 35.0 °F 35.6 °F 87% 29.94 in 10.0 mi NW 5.8 mph - N/A   Mostly Cloudy
11:13 PM 39.2 °F 35.0 °F 35.6 °F 87% 29.94 in 10.0 mi NW 5.8 mph - N/A Rain Light Rain
11:33 PM 37.4 °F 32.8 °F 35.6 °F 93% 29.93 in 7.0 mi NNW 5.8 mph - 0.01 in Rain Light Rain
11:53 PM 37.4 °F 34.9 °F 35.6 °F 93% 29.93 in 10.0 mi NW 3.5 mph - N/A Rain Light Rain